FW1629 Weather Reports


time (UTC)temp
F
wind
direction
speed
knots
gust
knots
rain 1hr
in
rain 24hr
in
rain mn
in
humidity
%
barometer
mb
20260504173029 48 200 41.7 49.5 0.00 0.00 0.00 80 1001.4
20260504171527 48 200 38.2 46.1 0.00 0.00 0.00 80 1001.6
20260504081533 32 347 0.0 3.5 0.00 0.00 0.00 81 1004.6
20260504044549 36 315 0.0 0.9 0.00 0.00 0.00 70 1005.1
20260504043055 37 325 0.0 11.3 0.00 0.00 0.00 70 1005.1
20260504041545 37 8 4.3 16.5 0.00 0.00 0.00 69 1004.9
20260504040042 37 27 10.4 17.4 0.00 0.00 0.00 69 1004.9
20260504034541 37 8 3.5 23.5 0.00 0.00 0.00 69 1005.0
20260504033040 39 32 16.5 20.9 0.00 0.00 0.00 67 1004.9
20260504031639 39 31 12.2 20.0 0.00 0.00 0.00 66 1004.9
20260504030036 39 13 16.5 26.9 0.00 0.00 0.00 65 1004.9
20260504024535 39 17 14.8 21.7 0.00 0.00 0.00 66 1005.1
20260504023034 39 2 3.5 15.6 0.00 0.00 0.00 67 1005.2
20260504021531 39 13 4.3 18.2 0.00 0.00 0.00 66 1005.2
20260504020044 40 345 4.3 13.0 0.00 0.00 0.00 66 1005.3
20260504014538 40 356 0.0 15.6 0.00 0.00 0.00 63 1005.5
20260504013037 41 9 0.9 9.6 0.00 0.00 0.00 64 1005.5
20260504011529 42 33 1.7 16.5 0.00 0.00 0.00 61 1005.6
20260504010029 42 21 15.6 22.6 0.00 0.00 0.00 59 1005.5
20260504004533 43 25 14.8 25.2 0.00 0.00 0.00 59 1005.4
20260504003027 43 20 13.9 26.1 0.00 0.00 0.00 58 1005.4
20260504001527 44 25 12.2 31.3 0.00 0.00 0.00 57 1005.1
20260504000027 45 1 15.6 32.2 0.00 0.00 0.00 57 1005.1
20260503234526 46 26 9.6 30.4 0.00 0.00 0.00 56 1004.9
20260503233024 47 19 6.1 18.2 0.00 0.00 0.00 64 1004.6
20260503231524 47 20 4.3 18.2 0.00 0.00 0.00 66 1004.5
20260503230024 47 14 0.0 0.0 0.00 0.00 0.00 69 1004.4
20260503224523 47 14 0.0 1.7 0.00 0.00 0.00 68 1004.5
20260503223023 47 14 0.0 13.0 0.00 0.00 0.00 67 1004.5
20260503221522 47 25 0.0 5.2 0.00 0.00 0.00 66 1004.4
20260503220022 48 41 12.2 16.5 0.00 0.00 0.00 64 1004.3
20260503214521 48 35 0.0 0.0 0.00 0.00 0.00 65 1004.3
20260503213021 48 336 0.0 0.9 0.00 0.00 0.00 66 1004.5
20260503211521 47 83 0.0 14.8 0.00 0.00 0.00 66 1004.4
20260503210020 48 42 0.0 3.5 0.00 0.00 0.00 65 1004.4
20260503204519 48 314 0.0 0.0 0.00 0.00 0.00 67 1004.5
20260503203040 47 74 0.0 0.0 0.00 0.00 0.00 61 1004.5
20260503201517 47 151 0.0 0.0 0.00 0.00 0.00 66 1004.5
20260503200017 46 125 1.7 20.9 0.00 0.00 0.00 69 1004.4
20260503194532 47 152 12.2 21.7 0.00 0.00 0.00 68 1004.4
20260503193015 47 157 12.2 20.0 0.00 0.00 0.00 68 1004.3
20260503191514 48 148 1.7 11.3 0.00 0.00 0.00 68 1004.2
20260503190017 47 154 15.6 24.3 0.00 0.00 0.00 74 1004.3
20260503184521 47 154 20.0 23.5 0.00 0.00 0.00 74 1004.3
20260503183009 47 167 14.8 20.9 0.00 0.00 0.00 75 1004.6
20260503181508 47 164 12.2 18.2 0.00 0.00 0.00 80 1004.8
20260503180008 47 181 5.2 13.9 0.00 0.00 0.00 76 1004.9
20260503174505 46 172 0.0 9.6 0.00 0.00 0.00 76 1005.0